^^
Paulen-Weather Station Historical Data
 
Daily Summary for April 07, 2020 Units:  Metric    English   Both
Daily Weekly Monthly Yearly Custom
  Current: High: Low: Average:
Temperature: 6 °C 7 °C 6 °C 6.8 °C
Dew Point: 6 °C 6 °C 5 °C 5.9 °C
Humidity: 96% 96% 95% 96%
Wind Speed: 5km/h 12km/h 3km/h 7km/h
Wind Gust: 16km/h 16km/h - -
WindWNW - - WNW
Pressure: 1021.13 hPa 1021.17 hPa 1018.15 hPa -
Precipitation: 0 mm      
Historical Graphs
 
 
Tabular Data for April 07, 2020
Time Temperature Dew Point Pressure Wind Wind Speed Wind Gust Humidity Rainfall Rate (Hourly) solar
00:04 7 °C 6 °C 1018.19 hPa WNW 6 km/h 13 km/h 95% 0 mm 0 W/m2
00:09 7 °C 6 °C 1018.15 hPa WNW 5 km/h 8 km/h 95% 0 mm 0 W/m2
00:14 7 °C 6 °C 1018.29 hPa WNW 6 km/h 8 km/h 95% 0 mm 0 W/m2
00:19 7 °C 6 °C 1018.25 hPa WNW 5 km/h 6 km/h 95% 0 mm 0 W/m2
00:24 7 °C 6 °C 1018.19 hPa NW 7 km/h 8 km/h 95% 0 mm 0 W/m2
00:29 7 °C 6 °C 1018.19 hPa NW 6 km/h 10 km/h 95% 0 mm 0 W/m2
00:34 7 °C 6 °C 1018.25 hPa W 6 km/h 8 km/h 95% 0 mm 0 W/m2
00:39 7 °C 6 °C 1018.25 hPa W 8 km/h 8 km/h 95% 0 mm 0 W/m2
00:44 7 °C 6 °C 1018.39 hPa W 7 km/h 10 km/h 95% 0 mm 0 W/m2
00:49 7 °C 6 °C 1018.39 hPa WNW 6 km/h 10 km/h 95% 0 mm 0 W/m2
00:54 7 °C 6 °C 1018.46 hPa W 9 km/h 11 km/h 95% 0 mm 0 W/m2
00:59 7 °C 6 °C 1018.56 hPa W 6 km/h 11 km/h 95% 0 mm 0 W/m2
01:04 7 °C 6 °C 1018.63 hPa W 9 km/h 8 km/h 95% 0 mm 0 W/m2
01:09 7 °C 6 °C 1018.63 hPa WNW 8 km/h 11 km/h 95% 0 mm 0 W/m2
01:14 7 °C 6 °C 1018.66 hPa W 8 km/h 10 km/h 95% 0 mm 0 W/m2
01:19 7 °C 6 °C 1018.86 hPa W 9 km/h 11 km/h 95% 0 mm 0 W/m2
01:24 7 °C 6 °C 1018.96 hPa W 8 km/h 11 km/h 95% 0 mm 0 W/m2
01:29 7 °C 6 °C 1019.03 hPa W 8 km/h 11 km/h 95% 0 mm 0 W/m2
01:34 7 °C 6 °C 1019.1 hPa WNW 8 km/h 10 km/h 95% 0 mm 0 W/m2
01:39 7 °C 6 °C 1019.3 hPa WNW 9 km/h 11 km/h 95% 0 mm 0 W/m2
01:44 7 °C 6 °C 1019.3 hPa WNW 6 km/h 13 km/h 96% 0 mm 0 W/m2
01:49 7 °C 6 °C 1019.34 hPa WNW 8 km/h 10 km/h 96% 0 mm 0 W/m2
01:54 7 °C 6 °C 1019.3 hPa WNW 5 km/h 11 km/h 96% 0 mm 0 W/m2
01:59 7 °C 6 °C 1019.27 hPa WNW 6 km/h 6 km/h 96% 0 mm 0 W/m2
02:04 7 °C 6 °C 1019.3 hPa WNW 7 km/h 8 km/h 96% 0 mm 0 W/m2
02:09 7 °C 6 °C 1019.3 hPa WNW 6 km/h 8 km/h 96% 0 mm 0 W/m2
02:14 7 °C 6 °C 1019.44 hPa WNW 7 km/h 8 km/h 96% 0 mm 0 W/m2
02:19 7 °C 6 °C 1019.44 hPa WNW 6 km/h 8 km/h 96% 0 mm 0 W/m2
02:24 7 °C 6 °C 1019.51 hPa WNW 6 km/h 6 km/h 96% 0 mm 0 W/m2
02:29 7 °C 6 °C 1019.57 hPa WNW 6 km/h 8 km/h 96% 0 mm 0 W/m2
02:34 7 °C 6 °C 1019.68 hPa WNW 7 km/h 8 km/h 96% 0 mm 0 W/m2
02:39 7 °C 6 °C 1019.68 hPa WNW 6 km/h 10 km/h 96% 0 mm 0 W/m2
02:44 7 °C 6 °C 1019.64 hPa WNW 5 km/h 6 km/h 96% 0 mm 0 W/m2
02:49 7 °C 6 °C 1019.68 hPa WNW 8 km/h 6 km/h 96% 0 mm 0 W/m2
02:54 7 °C 6 °C 1019.71 hPa WNW 7 km/h 11 km/h 96% 0 mm 0 W/m2
02:59 7 °C 6 °C 1019.78 hPa WNW 6 km/h 8 km/h 96% 0 mm 0 W/m2
03:04 7 °C 6 °C 1019.84 hPa WNW 7 km/h 8 km/h 96% 0 mm 0 W/m2
03:09 7 °C 6 °C 1019.88 hPa W 6 km/h 10 km/h 96% 0 mm 0 W/m2
03:14 7 °C 6 °C 1019.88 hPa WNW 6 km/h 8 km/h 96% 0 mm 0 W/m2
03:19 7 °C 6 °C 1019.88 hPa WNW 3 km/h 8 km/h 96% 0 mm 0 W/m2
03:24 7 °C 6 °C 1020.01 hPa W 5 km/h 5 km/h 96% 0 mm 0 W/m2
03:29 7 °C 6 °C 1020.12 hPa W 3 km/h 6 km/h 96% 0 mm 0 W/m2
03:34 7 °C 6 °C 1020.18 hPa W 4 km/h 4 km/h 96% 0 mm 0 W/m2
03:39 7 °C 6 °C 1020.25 hPa W 6 km/h 6 km/h 96% 0 mm 0 W/m2
03:44 7 °C 6 °C 1020.32 hPa W 5 km/h 6 km/h 96% 0 mm 0 W/m2
03:49 6 °C 6 °C 1020.49 hPa W 7 km/h 6 km/h 96% 0 mm 0 W/m2
03:54 6 °C 6 °C 1020.52 hPa W 7 km/h 10 km/h 96% 0 mm 0 W/m2
03:59 6 °C 6 °C 1020.62 hPa W 6 km/h 8 km/h 96% 0 mm 0 W/m2
04:04 6 °C 6 °C 1020.66 hPa W 5 km/h 10 km/h 96% 0 mm 0 W/m2
04:09 6 °C 6 °C 1020.69 hPa W 9 km/h 9 km/h 96% 0 mm 0 W/m2
04:14 6 °C 6 °C 1020.83 hPa WNW 10 km/h 11 km/h 96% 0 mm 0 W/m2
04:19 6 °C 6 °C 1020.96 hPa NW 12 km/h 11 km/h 96% 0 mm 0 W/m2
04:24 6 °C 5 °C 1021 hPa W 10 km/h 14 km/h 96% 0 mm 0 W/m2
04:29 6 °C 5 °C 1021.06 hPa NW 9 km/h 11 km/h 96% 0 mm 0 W/m2
04:34 6 °C 5 °C 1021.06 hPa WNW 11 km/h 13 km/h 96% 0 mm 0 W/m2
04:39 6 °C 5 °C 1021.13 hPa NW 9 km/h 13 km/h 96% 0 mm 0 W/m2
04:44 6 °C 6 °C 1021.17 hPa WNW 10 km/h 11 km/h 96% 0 mm 0 W/m2
04:49 6 °C 6 °C 1021.13 hPa WNW 11 km/h 13 km/h 96% 0 mm 0 W/m2
04:50 6 °C 6 °C 1021.13 hPa WNW 5 km/h 16 km/h 96% 0 mm 0 W/m2
Compliments of Weather Underground - 2 mb